Location: Melbourne
(37.8170°S, 144.9670°E)
Time: 21:47:13
(UTC+10:00)

ADEOS Rocket - Visible Passes

Search period start: 30 September 2014 00:00
Search period end: 10 October 2014 01:00
Orbit: 860 x 1306 km, 98.7° (Epoch: 29 September)

Date Brightness Start Highest point End Pass type
(mag) Time Alt. Az. Time Alt. Az. Time Alt. Az.
30 Sep 5.3 22:26:45 10° S 22:27:35 15° S 22:27:35 15° S visible
01 Oct 5.2 21:37:44 10° SSE 21:38:12 13° SSE 21:38:12 13° SSE visible
01 Oct 5.6 23:24:56 10° SSW 23:25:10 11° SSW 23:25:10 11° SSW visible
02 Oct 5.2 22:34:36 10° S 22:35:47 16° S 22:35:47 16° S visible
03 Oct 5.0 21:45:25 10° SSE 21:46:24 16° SSE 21:46:24 16° SSE visible
03 Oct 5.6 23:33:11 10° SSW 23:33:22 11° SSW 23:33:22 11° SSW visible
04 Oct 5.1 22:42:29 10° S 22:43:59 18° SSW 22:43:59 18° SSW visible
05 Oct 4.8 22:53:08 10° SSE 22:54:37 19° SSE 22:54:37 19° SSE visible
06 Oct 5.0 22:04:42 10° SE 22:05:14 13° SE 22:05:14 13° SE visible
06 Oct 5.1 23:50:23 10° S 23:52:13 19° SSW 23:52:13 19° SSW visible
07 Oct 4.7 23:00:52 10° S 23:02:51 23° S 23:02:51 23° S visible
08 Oct 4.8 22:12:15 10° SSE 22:13:29 17° SE 22:13:29 17° SE visible
08 Oct 5.1 23:58:19 10° SSW 00:00:27 20° SSW 00:00:27 20° SSW visible
09 Oct 4.5 23:08:38 10° S 23:11:06 27° S 23:11:06 27° S visible
